This is the latest recevied weather packets stored in our database for station/object DL4NBA-1. If no packets are shown the sender has not sent any weather packets the latest 10 day(s).
| Time | Temp. | Humidity | Pressure | Rain* | Wind** | Luminosity | Snow |
|---|---|---|---|---|---|---|---|
| 1777667154 | 11.11° C | - | - | 0 mm | 0 m/s | - | - |
| 1777666855 | 11.11° C | - | - | 0 mm | 0 m/s | - | - |
| 1777666556 | 11.67° C | - | - | 0 mm | 0 m/s | - | - |
| 1777666256 | 11.67° C | - | - | 0 mm | 0 m/s | - | - |
| 1777665957 | 11.67° C | - | - | 0 mm | 0 m/s | - | - |
| 1777665655 | 11.67° C | - | - | 0 mm | 0.45 m/s, 15° | - | - |
| 1777665356 | 11.11° C | - | - | 0 mm | 1.34 m/s, 32° | - | - |
| 1777665057 | 11.11° C | - | - | 0 mm | 1.79 m/s, 21° | - | - |
| 1777664757 | 11.11° C | - | - | 0 mm | 0.89 m/s, 13° | - | - |
| 1777664458 | 11.67° C | - | - | 0 mm | 0 m/s | - | - |
| 1777664156 | 12.78° C | - | - | 0 mm | 0 m/s | - | - |
| 1777663857 | 12.22° C | - | - | 0 mm | 0 m/s | - | - |
| 1777663558 | 12.22° C | - | - | 0 mm | 0 m/s | - | - |
| 1777663259 | 13.33° C | - | - | 0 mm | 0.45 m/s, 104° | - | - |
| 1777662961 | 15.56° C | - | - | 0 mm | 0.45 m/s, 110° | - | - |
| 1777662658 | 15.56° C | - | - | 0 mm | 0 m/s | - | - |
| 1777662360 | 16.11° C | - | - | 0 mm | 0.45 m/s, 107° | - | - |
| 1777662061 | 16.67° C | - | - | 0 mm | 0.45 m/s, 97° | - | - |
| 1777661762 | 16.11° C | - | - | 0 mm | 0.45 m/s, 121° | - | - |
| 1777661463 | 16.11° C | - | - | 0 mm | 0.45 m/s, 100° | - | - |
| 1777661160 | 17.22° C | - | - | 0 mm | 0.45 m/s, 107° | - | - |
| 1777660861 | 17.22° C | - | - | 0 mm | 0.89 m/s, 129° | - | - |
| 1777660562 | 17.22° C | - | - | 0 mm | 0.45 m/s, 132° | - | - |
| 1777660263 | 17.22° C | - | - | 0 mm | 0.45 m/s, 134° | - | - |
| 1777659963 | 17.78° C | - | - | 0 mm | 0.45 m/s, 134° | - | - |
* Rain latest hour (hover to see other rain measurements)
** Current wind speed in m/s (hover to see current wind gust speed)